Andrews, NC

3:57 AM EST on February 13, 2016 (GMT -0500)
Andrews

Weather History for KRHP - January, 2014

Change the Weather History Date:

Wednesday, January 15, 2014

  Actual Average (KTYS) Record (KTYS)
Temperature  
Mean Temperature 34 °F 38 °F  
Max Temperature 43 °F 47 °F 72 °F (1907)
Min Temperature 25 °F 29 °F 5 °F (1893)
Degree Days  
Heating Degree Days 32 27  
Month to date heating degree days 405  
Since 1 July heating degree days 1838  
Cooling Degree Days 0 0  
Month to date cooling degree days 0  
Year to date cooling degree days 0  
Moisture  
Dew Point 24 °F    
Average Humidity 73    
Maximum Humidity 99    
Minimum Humidity 34    
Precipitation  
Precipitation 0.00 in 0.14 in 3.77 in (1954)
Month to date precipitation 2.07  
Year to date precipitation 2.07  
Snow  
Snow 0.00 in 0.10 in - ()
Month to date snowfall 1.2  
Since 1 July snowfall 2.0  
Snow Depth -    
Sea Level Pressure  
Sea Level Pressure 29.96 in    
Wind  
Wind Speed 2 mph (NNE)    
Max Wind Speed 12 mph    
Max Gust Speed 18 mph    
Visibility 10 miles    
Events      
T = Trace of Precipitation, MM = Missing Value Source: NWS Daily Summary

Daily Weather History Graph

Daily Weather History Graph

Search for Another Location

Airport or City:

Trip Planner

Search our weather history database for the weather conditions in past years. The results will help you decide how hot, cold, wet, or windy it might be!

Date:

Astronomy

Jan. 15, 2014 Rise Set
Actual Time 7:43 AM EST 5:46 PM EST
Civil Twilight 7:15 AM EST 6:14 PM EST
Nautical Twilight 6:44 AM EST 6:45 PM EST
Astronomical Twilight 6:14 AM EST 7:15 PM EST
Moon 5:41 PM EST (1/15) 7:00 AM EST (1/15)
Length of Visible Light 10h 58m
Length of Day
10h 03m
Full, 100% of the Moon is Illuminated
Jan 15
Full
Jan 15
Full
Jan 24
Last Quarter
Jan 30
New
Feb 6
First Quarter

Hourly Weather History & Observations

Time (EST) Temp. Windchill Dew Point Humidity Pressure Visibility Wind Dir Wind Speed Gust Speed Precip Events Conditions
12:15 AM 29.3 °F - 28.9 °F 99% 29.98 in 10.0 mi Calm Calm - N/A   Clear
12:35 AM 29.5 °F - 28.9 °F 98% 29.98 in 10.0 mi Calm Calm - N/A   Clear
12:55 AM 28.9 °F - 28.0 °F 96% 29.97 in 10.0 mi Calm Calm - N/A   Clear
1:15 AM 28.8 °F - 28.2 °F 98% 29.96 in 10.0 mi Calm Calm - N/A   Clear
1:35 AM 28.4 °F - 28.2 °F 99% 29.96 in 5.0 mi Calm Calm - N/A   Clear
1:55 AM 28.4 °F - 27.9 °F 98% 29.95 in 10.0 mi Calm Calm - N/A   Clear
2:15 AM 28.4 °F - 28.0 °F 99% 29.96 in 10.0 mi Calm Calm - N/A   Clear
2:35 AM 27.7 °F - 27.3 °F 99% 29.96 in 7.0 mi Calm Calm - N/A   Clear
2:55 AM 27.7 °F - 27.0 °F 97% 29.96 in 10.0 mi Calm Calm - N/A   Clear
3:15 AM 28.4 °F - 28.0 °F 99% 29.95 in 10.0 mi Calm Calm - N/A   Clear
3:35 AM 27.3 °F - 26.6 °F 97% 29.95 in 10.0 mi Calm Calm - N/A   Mostly Cloudy
3:55 AM 28.2 °F - 27.5 °F 97% 29.95 in 10.0 mi Calm Calm - N/A   Scattered Clouds
4:15 AM 27.5 °F - 27.1 °F 99% 29.96 in 10.0 mi Calm Calm - N/A   Mostly Cloudy
4:35 AM 28.0 °F 24.2 °F 27.5 °F 98% 29.96 in 10.0 mi West 3.5 mph - N/A   Overcast
4:55 AM 28.4 °F - 28.0 °F 99% 29.95 in 10.0 mi Calm Calm - N/A   Overcast
5:15 AM 28.4 °F - 28.0 °F 99% 29.95 in 10.0 mi Calm Calm - N/A   Overcast
5:35 AM 29.3 °F - 28.6 °F 97% 29.95 in 10.0 mi Calm Calm - N/A   Overcast
5:55 AM 29.7 °F - 29.1 °F 98% 29.96 in 10.0 mi Calm Calm - N/A   Overcast
6:15 AM 30.2 °F - 29.7 °F 98% 29.96 in 10.0 mi Calm Calm - N/A   Overcast
6:35 AM 30.2 °F - 29.3 °F 96% 29.97 in 10.0 mi Calm Calm - N/A   Overcast
6:55 AM 30.6 °F - 29.8 °F 97% 29.97 in 10.0 mi Calm Calm - N/A   Overcast
7:15 AM 30.7 °F - 30.0 °F 97% 29.97 in 10.0 mi Calm Calm - N/A   Overcast
7:35 AM 31.1 °F - 30.4 °F 97% 29.98 in 10.0 mi Calm Calm - N/A   Overcast
7:55 AM 31.5 °F - 30.7 °F 97% 29.99 in 10.0 mi Calm Calm - N/A   Overcast
8:15 AM 32.0 °F 25.6 °F 31.1 °F 96% 29.99 in 10.0 mi East 6.9 mph - N/A   Overcast
8:35 AM 32.2 °F - 31.5 °F 97% 29.99 in 10.0 mi Calm Calm - N/A   Overcast
8:55 AM 33.6 °F 28.4 °F 30.9 °F 90% 29.99 in 10.0 mi ENE 5.8 mph - N/A   Overcast
9:15 AM 34.9 °F 32.0 °F 31.5 °F 87% 29.99 in 10.0 mi East 3.5 mph - N/A   Overcast
9:35 AM 36.1 °F 30.6 °F 28.4 °F 73% 29.99 in 10.0 mi NE 6.9 mph - N/A   Overcast
9:55 AM 36.5 °F - 27.3 °F 69% 30.00 in 10.0 mi Calm Calm - N/A   Mostly Cloudy
10:15 AM 37.0 °F 34.5 °F 27.1 °F 67% 29.99 in 10.0 mi SE 3.5 mph - N/A   Mostly Cloudy
10:35 AM 38.5 °F - 27.9 °F 66% 30.00 in 10.0 mi Calm Calm - N/A   Mostly Cloudy
10:55 AM 38.3 °F - 27.3 °F 65% 29.99 in 10.0 mi Calm Calm - N/A   Overcast
11:15 AM 39.2 °F 35.9 °F 27.3 °F 62% 29.99 in 10.0 mi NE 4.6 mph - N/A   Overcast
11:35 AM 38.8 °F 35.4 °F 26.4 °F 61% 29.98 in 10.0 mi North 4.6 mph - N/A   Overcast
11:55 AM 38.8 °F - 26.1 °F 60% 29.97 in 10.0 mi Calm Calm - N/A   Overcast
12:15 PM 39.0 °F 35.7 °F 26.1 °F 60% 29.96 in 10.0 mi North 4.6 mph - N/A   Overcast
12:35 PM 39.2 °F - 26.1 °F 59% 29.94 in 10.0 mi Calm Calm - N/A   Overcast
12:55 PM 39.4 °F 34.5 °F 27.0 °F 61% 29.93 in 10.0 mi East 6.9 mph - N/A   Overcast
1:15 PM 39.4 °F 35.2 °F 25.3 °F 57% 29.93 in 10.0 mi East 5.8 mph - N/A   Overcast
1:35 PM 39.2 °F - 23.9 °F 54% 29.91 in 10.0 mi Calm Calm - N/A   Overcast
1:55 PM 39.4 °F - 21.9 °F 50% 29.91 in 10.0 mi Calm Calm - N/A   Overcast
2:15 PM 40.3 °F 37.1 °F 18.5 °F 42% 29.90 in 10.0 mi SSE 4.6 mph - N/A   Overcast
2:35 PM 41.7 °F 38.0 °F 18.3 °F 39% 29.90 in 10.0 mi WSW 5.8 mph - N/A   Mostly Cloudy
2:55 PM 41.7 °F 38.8 °F 16.7 °F 36% 29.90 in 10.0 mi SW 4.6 mph - N/A   Scattered Clouds
3:15 PM 42.3 °F 36.3 °F 16.0 °F 35% 29.89 in 10.0 mi WSW 10.4 mph - N/A   Scattered Clouds
3:35 PM 42.3 °F 35.9 °F 18.1 °F 38% 29.90 in 10.0 mi West 11.5 mph 18.4 mph N/A   Clear
3:55 PM 41.9 °F 37.5 °F 16.9 °F 36% 29.90 in 10.0 mi West 6.9 mph - N/A   Scattered Clouds
4:15 PM 40.1 °F 34.1 °F 17.6 °F 40% 29.91 in 10.0 mi West 9.2 mph - N/A   Scattered Clouds
4:35 PM 41.0 °F 36.4 °F 14.5 °F 34% 29.91 in 10.0 mi West 6.9 mph - N/A   Scattered Clouds
4:55 PM 39.0 °F 31.8 °F 18.1 °F 43% 29.92 in 10.0 mi West 11.5 mph - N/A   Scattered Clouds
5:15 PM 38.5 °F 31.6 °F 14.2 °F 37% 29.93 in 10.0 mi WNW 10.4 mph - N/A   Mostly Cloudy
5:35 PM 37.2 °F 31.2 °F 15.4 °F 41% 29.93 in 10.0 mi WNW 8.1 mph - N/A   Scattered Clouds
5:55 PM 36.1 °F 33.5 °F 16.2 °F 44% 29.93 in 10.0 mi NW 3.5 mph - N/A   Scattered Clouds
6:15 PM 32.0 °F 28.7 °F 21.4 °F 65% 29.93 in 10.0 mi NNW 3.5 mph - N/A   Scattered Clouds
6:35 PM 32.0 °F - 19.6 °F 60% 29.94 in 10.0 mi Calm Calm - N/A   Scattered Clouds
6:55 PM 32.0 °F - 21.2 °F 64% 29.95 in 10.0 mi Calm Calm - N/A   Overcast
7:15 PM 33.8 °F 29.6 °F 21.2 °F 60% 29.96 in 10.0 mi NNW 4.6 mph - N/A   Overcast
7:35 PM 32.9 °F - 20.8 °F 61% 29.97 in 10.0 mi Calm Calm - N/A   Overcast
7:55 PM 32.4 °F 29.1 °F 21.0 °F 63% 29.99 in 10.0 mi ESE 3.5 mph - N/A   Overcast
8:15 PM 32.0 °F 24.8 °F 21.2 °F 64% 29.99 in 10.0 mi ESE 8.1 mph - N/A   Overcast
8:35 PM 31.8 °F 26.2 °F 19.8 °F 61% 30.00 in 10.0 mi North 5.8 mph - N/A   Overcast
8:55 PM 31.1 °F 23.7 °F 19.0 °F 61% 30.00 in 10.0 mi NE 8.1 mph - N/A   Mostly Cloudy
9:15 PM 29.8 °F 23.0 °F 18.9 °F 64% 30.00 in 10.0 mi NE 6.9 mph - N/A   Scattered Clouds
9:35 PM 29.1 °F 25.4 °F 19.0 °F 66% 30.01 in 10.0 mi ESE 3.5 mph - N/A   Scattered Clouds
9:55 PM 28.4 °F 24.6 °F 20.5 °F 72% 30.01 in 10.0 mi ESE 3.5 mph - N/A   Mostly Cloudy
10:15 PM 27.9 °F - 19.4 °F 71% 30.01 in 10.0 mi Calm Calm - N/A   Mostly Cloudy
10:35 PM 28.2 °F - 19.0 °F 68% 30.01 in 10.0 mi Calm Calm - N/A   Mostly Cloudy
10:55 PM 27.0 °F - 18.9 °F 72% 30.01 in 10.0 mi Calm Calm - N/A   Mostly Cloudy
11:15 PM 26.1 °F - 18.3 °F 73% 30.00 in 10.0 mi Calm Calm - N/A   Clear
11:35 PM 25.7 °F - 18.5 °F 74% 30.00 in 10.0 mi Calm Calm - N/A   Clear
11:55 PM 25.7 °F - 17.6 °F 71% 30.00 in 10.0 mi Calm Calm - N/A   Clear